NJE932P EPKK-ESSV

Flight info

Callsign NJE932P
Flight time 1h 29m
Altitude 41000
Route NAVU6J NAVUR N744 OVBOR N133 PENOR HANSA HANS5F
Aircraft C25C/L-SDFGIRWY/S

Departure

Time 2026-04-22 16:42
Airport Kraków John Paul II International Airport (EPKK)

Arrival

Time 2026-04-22 18:11
Airport Visby Airport (ESSV)
Time Latitude Longitude Altitude Speed Heading
2026-04-22 16:15 50.07593 19.80158 785 ft 0 kts 347°
2026-04-22 16:36 50.07608 19.80152 785 ft 6 kts 347°
2026-04-22 16:36 50.07645 19.80220 785 ft 13 kts 78°
2026-04-22 16:36 50.07665 19.80360 785 ft 15 kts 67°
2026-04-22 16:37 50.07733 19.80375 785 ft 0 kts 348°
2026-04-22 16:37 50.07734 19.80374 785 ft 3 kts 348°
2026-04-22 16:37 50.07793 19.80354 785 ft 12 kts 346°
2026-04-22 16:37 50.07854 19.80333 785 ft 0 kts 347°
2026-04-22 16:39 50.07863 19.80330 785 ft 6 kts 347°
2026-04-22 16:39 50.07939 19.80302 785 ft 17 kts 347°
2026-04-22 16:39 50.08008 19.80158 785 ft 20 kts 260°
2026-04-22 16:40 50.07980 19.79958 784 ft 18 kts 258°
2026-04-22 16:40 50.07972 19.79902 784 ft 0 kts 258°
2026-04-22 16:41 50.07925 19.79557 785 ft 84 kts 257°
2026-04-22 16:41 50.07764 19.78245 1068 ft 148 kts 264°
2026-04-22 16:42 50.07565 19.76521 1614 ft 175 kts 265°
2026-04-22 16:42 50.07306 19.74507 1964 ft 206 kts 260°
2026-04-22 16:42 50.06913 19.72217 2310 ft 227 kts 259°
2026-04-22 16:42 50.06550 19.69783 2662 ft 240 kts 261°
2026-04-22 16:43 50.06351 19.67150 3001 ft 243 kts 281°
2026-04-22 16:43 50.07024 19.64804 3414 ft 239 kts 313°
2026-04-22 16:43 50.08360 19.63307 3792 ft 238 kts 338°
2026-04-22 16:43 50.09983 19.62932 4166 ft 238 kts
2026-04-22 16:44 50.11613 19.63383 4546 ft 238 kts 10°
2026-04-22 16:44 50.13247 19.63897 4878 ft 241 kts 11°
2026-04-22 16:44 50.14902 19.64429 5729 ft 240 kts 10°
2026-04-22 16:44 50.16535 19.64917 7068 ft 241 kts 10°
2026-04-22 16:45 50.18205 19.65425 8231 ft 247 kts 10°
2026-04-22 16:45 50.19909 19.65941 9464 ft 252 kts 11°
2026-04-22 16:45 50.21644 19.66468 10626 ft 256 kts 11°
2026-04-22 16:45 50.23412 19.67008 11726 ft 261 kts 11°
2026-04-22 16:46 50.24601 19.67367 12434 ft 265 kts 12°
2026-04-22 16:46 50.26426 19.67926 13505 ft 269 kts 12°
2026-04-22 16:46 50.28284 19.68489 14476 ft 274 kts 13°
2026-04-22 16:46 50.30168 19.69067 15386 ft 278 kts 13°
2026-04-22 16:47 50.32078 19.69649 16309 ft 281 kts 13°
2026-04-22 16:47 50.34015 19.70240 17238 ft 285 kts 13°
2026-04-22 16:47 50.35974 19.70841 18202 ft 289 kts 13°
2026-04-22 16:47 50.37960 19.71446 19081 ft 293 kts 14°
2026-04-22 16:48 50.39970 19.72065 19977 ft 296 kts 14°
2026-04-22 16:48 50.42007 19.72688 20921 ft 300 kts 14°
2026-04-22 16:48 50.44069 19.73320 21844 ft 304 kts 14°
2026-04-22 16:48 50.46161 19.73965 22733 ft 309 kts 14°
2026-04-22 16:49 50.48282 19.74614 23569 ft 313 kts 14°
2026-04-22 16:49 50.50400 19.75268 24248 ft 317 kts 14°
2026-04-22 16:49 50.52575 19.75936 24891 ft 320 kts 14°
2026-04-22 16:49 50.54773 19.76615 25520 ft 323 kts 14°
2026-04-22 16:50 50.56992 19.77299 26134 ft 326 kts 15°
2026-04-22 16:50 50.59233 19.77991 26745 ft 330 kts 15°
2026-04-22 16:50 50.61496 19.78692 27320 ft 333 kts 15°
2026-04-22 16:50 50.63781 19.79397 27884 ft 336 kts 15°
2026-04-22 16:51 50.66090 19.80115 28403 ft 340 kts 15°
2026-04-22 16:51 50.68409 19.80831 29039 ft 339 kts 15°
2026-04-22 16:51 50.70723 19.81548 29697 ft 338 kts 15°
2026-04-22 16:51 50.73028 19.82263 30307 ft 337 kts 15°
2026-04-22 16:52 50.75330 19.82983 30799 ft 337 kts 15°
2026-04-22 16:52 50.77630 19.83697 31292 ft 337 kts 15°
2026-04-22 16:52 50.79930 19.84414 31772 ft 337 kts 14°
2026-04-22 16:52 50.82229 19.85132 32263 ft 336 kts 14°
2026-04-22 16:53 50.84525 19.85847 32744 ft 336 kts 14°
2026-04-22 16:53 50.86820 19.86566 33232 ft 336 kts 14°
2026-04-22 16:53 50.89110 19.87283 33698 ft 336 kts 14°
2026-04-22 16:53 50.91401 19.87999 34172 ft 335 kts 14°
2026-04-22 16:54 50.93688 19.88718 34548 ft 335 kts 13°
2026-04-22 16:54 50.95977 19.89436 34921 ft 336 kts 13°
2026-04-22 16:54 50.98271 19.90159 35272 ft 336 kts 14°
2026-04-22 16:54 51.00503 19.91239 35631 ft 335 kts 22°
2026-04-22 16:55 51.02603 19.92843 36004 ft 335 kts 31°
2026-04-22 16:55 51.04542 19.94914 36369 ft 336 kts 35°
2026-04-22 16:55 51.06565 19.96789 36711 ft 338 kts 26°
2026-04-22 16:55 51.08748 19.98157 37077 ft 339 kts 17°
2026-04-22 16:56 51.11053 19.98982 37448 ft 340 kts
2026-04-22 16:56 51.13418 19.99233 37827 ft 342 kts
2026-04-22 16:56 51.15759 19.98904 38191 ft 344 kts 352°
2026-04-22 16:56 51.18081 19.97987 38567 ft 345 kts 343°
2026-04-22 16:57 51.20364 19.96798 38903 ft 345 kts 343°
2026-04-22 16:57 51.22651 19.95626 39200 ft 345 kts 343°
2026-04-22 16:57 51.24940 19.94452 39495 ft 345 kts 343°
2026-04-22 16:57 51.27226 19.93266 39777 ft 346 kts 343°
2026-04-22 16:58 51.29515 19.92074 40006 ft 348 kts 343°
2026-04-22 16:58 51.34214 19.89638 40109 ft 363 kts 343°
2026-04-22 16:59 51.39121 19.87085 40127 ft 378 kts 343°
2026-04-22 16:59 51.44217 19.84438 40125 ft 391 kts 343°
2026-04-22 17:00 51.49468 19.81685 40116 ft 402 kts 343°
2026-04-22 17:00 51.57572 19.77441 40111 ft 413 kts 343°
2026-04-22 17:01 51.63046 19.74569 40111 ft 414 kts 343°
2026-04-22 17:01 51.68520 19.71692 40112 ft 414 kts 343°
2026-04-22 17:02 51.73989 19.68805 40104 ft 414 kts 343°
2026-04-22 17:02 51.79422 19.65919 40106 ft 413 kts 343°
2026-04-22 17:03 51.84923 19.63219 40111 ft 413 kts 346°
2026-04-22 17:03 51.90414 19.60513 40107 ft 413 kts 344°
2026-04-22 17:04 51.95920 19.57818 40105 ft 413 kts 345°
2026-04-22 17:04 52.01417 19.55111 40103 ft 413 kts 345°
2026-04-22 17:05 52.06916 19.52400 40097 ft 413 kts 345°
2026-04-22 17:05 52.12415 19.49679 40091 ft 413 kts 345°
2026-04-22 17:06 52.17916 19.46952 40087 ft 413 kts 345°
2026-04-22 17:06 52.23417 19.44218 40085 ft 413 kts 345°
2026-04-22 17:07 52.28923 19.41476 40081 ft 413 kts 345°
2026-04-22 17:07 52.34421 19.38728 40081 ft 413 kts 345°
2026-04-22 17:08 52.39924 19.35971 40082 ft 413 kts 345°
2026-04-22 17:08 52.45425 19.33210 40078 ft 414 kts 345°
2026-04-22 17:09 52.50930 19.30438 40080 ft 414 kts 345°
2026-04-22 17:09 52.56398 19.27676 40076 ft 414 kts 345°
2026-04-22 17:10 52.61909 19.24886 40079 ft 414 kts 345°
2026-04-22 17:10 52.67415 19.22093 40076 ft 414 kts 345°
2026-04-22 17:11 52.72926 19.19286 40076 ft 414 kts 345°
2026-04-22 17:11 52.78433 19.16477 40074 ft 414 kts 345°
2026-04-22 17:12 52.83947 19.13657 40073 ft 415 kts 345°
2026-04-22 17:12 52.89459 19.10828 40078 ft 415 kts 345°
2026-04-22 17:13 52.94974 19.07990 40075 ft 415 kts 345°
2026-04-22 17:13 53.00496 19.05143 40073 ft 415 kts 345°
2026-04-22 17:14 53.06018 19.02287 40082 ft 415 kts 345°
2026-04-22 17:14 53.11539 18.99424 40076 ft 416 kts 345°
2026-04-22 17:15 53.17064 18.96552 40080 ft 416 kts 345°
2026-04-22 17:15 53.22548 18.93694 40079 ft 416 kts 345°
2026-04-22 17:16 53.28076 18.90803 40083 ft 416 kts 345°
2026-04-22 17:16 53.33569 18.87922 40083 ft 417 kts 345°
2026-04-22 17:17 53.39099 18.85014 40086 ft 417 kts 345°
2026-04-22 17:17 53.44633 18.82096 40089 ft 417 kts 345°
2026-04-22 17:18 53.50178 18.79165 40087 ft 417 kts 345°
2026-04-22 17:18 53.55593 18.75607 40090 ft 420 kts 340°
2026-04-22 17:19 53.66336 18.67838 40093 ft 420 kts 340°
2026-04-22 17:20 53.77088 18.60006 40092 ft 421 kts 340°
2026-04-22 17:21 53.85125 18.54118 40098 ft 421 kts 340°
2026-04-22 17:22 53.93193 18.48183 40101 ft 421 kts 340°
2026-04-22 17:23 54.01260 18.42224 40107 ft 422 kts 340°
2026-04-22 17:23 54.09328 18.36238 40107 ft 422 kts 340°
2026-04-22 17:24 54.14707 18.32234 40104 ft 422 kts 340°
2026-04-22 17:24 54.20084 18.28221 40098 ft 422 kts 340°
2026-04-22 17:25 54.25460 18.24195 40103 ft 422 kts 340°
2026-04-22 17:25 54.30839 18.20155 40100 ft 422 kts 340°
2026-04-22 17:26 54.36204 18.16066 40103 ft 422 kts 340°
2026-04-22 17:26 54.41569 18.11973 40106 ft 422 kts 340°
2026-04-22 17:27 54.46933 18.07869 40108 ft 422 kts 340°
2026-04-22 17:27 54.52253 18.03786 40107 ft 421 kts 340°
2026-04-22 17:28 54.57606 17.99667 40119 ft 421 kts 340°
2026-04-22 17:28 54.62956 17.95536 40118 ft 421 kts 340°
2026-04-22 17:29 54.68307 17.91393 40118 ft 421 kts 340°
2026-04-22 17:29 54.73653 17.87244 40116 ft 421 kts 340°
2026-04-22 17:30 54.78997 17.83084 40122 ft 421 kts 340°
2026-04-22 17:30 54.84326 17.78905 40112 ft 420 kts 340°
2026-04-22 17:31 54.89650 17.74711 40118 ft 420 kts 340°
2026-04-22 17:31 54.94971 17.70516 40118 ft 420 kts 340°
2026-04-22 17:32 55.00293 17.66343 40118 ft 419 kts 341°
2026-04-22 17:32 55.02970 17.64340 39937 ft 418 kts 343°
2026-04-22 17:32 55.05590 17.62363 40053 ft 414 kts 343°
2026-04-22 17:33 55.10850 17.58311 40113 ft 413 kts 343°
2026-04-22 17:33 55.16113 17.54280 40113 ft 413 kts 343°
2026-04-22 17:34 55.21373 17.50226 40112 ft 413 kts 343°
2026-04-22 17:34 55.26617 17.46058 40112 ft 414 kts 342°
2026-04-22 17:35 55.31853 17.41885 40109 ft 413 kts 342°
2026-04-22 17:35 55.37086 17.37712 40111 ft 413 kts 342°
2026-04-22 17:36 55.41433 17.34227 40108 ft 413 kts 342°
2026-04-22 17:36 55.46661 17.30036 40107 ft 413 kts 342°
2026-04-22 17:37 55.51883 17.25830 40107 ft 413 kts 342°
2026-04-22 17:37 55.57102 17.21619 40111 ft 412 kts 342°
2026-04-22 17:38 55.62475 17.18604 40111 ft 401 kts 355°
2026-04-22 17:38 55.67951 17.17692 40107 ft 391 kts
2026-04-22 17:39 55.73311 17.18705 40104 ft 386 kts 14°
2026-04-22 17:40 55.81272 17.20848 40103 ft 385 kts 13°
2026-04-22 17:40 55.86569 17.22297 40101 ft 385 kts 13°
2026-04-22 17:41 55.91858 17.23738 40100 ft 384 kts 13°
2026-04-22 17:41 55.97143 17.25189 40096 ft 384 kts 13°
2026-04-22 17:42 56.02417 17.26636 40095 ft 383 kts 13°
2026-04-22 17:42 56.07681 17.28085 40096 ft 382 kts 13°
2026-04-22 17:43 56.12939 17.29537 40094 ft 382 kts 13°
2026-04-22 17:43 56.18165 17.30983 40097 ft 374 kts 13°
2026-04-22 17:44 56.23177 17.32372 40087 ft 360 kts 13°
2026-04-22 17:44 56.28052 17.33731 39962 ft 352 kts 13°
2026-04-22 17:44 56.30494 17.34419 39522 ft 357 kts 14°
2026-04-22 17:45 56.32939 17.35100 39057 ft 354 kts 14°
2026-04-22 17:45 56.35365 17.35773 38557 ft 351 kts 14°
2026-04-22 17:45 56.37758 17.36444 38082 ft 345 kts 14°
2026-04-22 17:45 56.40115 17.37105 37621 ft 340 kts 14°
2026-04-22 17:46 56.42439 17.37758 37176 ft 336 kts 14°
2026-04-22 17:46 56.44738 17.38406 36736 ft 333 kts 14°
2026-04-22 17:46 56.47014 17.39045 36303 ft 330 kts 14°
2026-04-22 17:46 56.49271 17.39682 35870 ft 327 kts 13°
2026-04-22 17:47 56.51515 17.40317 35433 ft 325 kts 13°
2026-04-22 17:47 56.53747 17.40945 35007 ft 324 kts 13°
2026-04-22 17:47 56.55972 17.41576 34583 ft 323 kts 13°
2026-04-22 17:47 56.58189 17.42204 34153 ft 322 kts 13°
2026-04-22 17:48 56.60401 17.42829 33695 ft 321 kts 13°
2026-04-22 17:48 56.62610 17.43459 33264 ft 322 kts 12°
2026-04-22 17:48 56.64821 17.44086 32847 ft 322 kts 12°
2026-04-22 17:48 56.67034 17.44715 32422 ft 322 kts 12°
2026-04-22 17:49 56.69251 17.45348 31994 ft 323 kts 12°
2026-04-22 17:49 56.71474 17.45980 31568 ft 324 kts 12°
2026-04-22 17:49 56.73700 17.46617 31139 ft 324 kts 11°
2026-04-22 17:49 56.75933 17.47255 30708 ft 325 kts 11°
2026-04-22 17:50 56.78171 17.47894 30281 ft 326 kts 11°
2026-04-22 17:50 56.80416 17.48540 29813 ft 327 kts 11°
2026-04-22 17:50 56.82662 17.49181 29383 ft 326 kts 11°
2026-04-22 17:50 56.84902 17.49826 28946 ft 325 kts 10°
2026-04-22 17:51 56.87135 17.50467 28518 ft 325 kts 10°
2026-04-22 17:51 56.89362 17.51108 28084 ft 323 kts 10°
2026-04-22 17:51 56.91581 17.51750 27657 ft 322 kts 10°
2026-04-22 17:51 56.93768 17.52377 27238 ft 322 kts 10°
2026-04-22 17:52 56.95977 17.53020 26811 ft 320 kts 10°
2026-04-22 17:52 56.98172 17.53652 26390 ft 318 kts 10°
2026-04-22 17:52 57.00354 17.54284 25973 ft 317 kts 10°
2026-04-22 17:52 57.02525 17.54915 25553 ft 315 kts 10°
2026-04-22 17:53 57.04687 17.55540 25136 ft 314 kts
2026-04-22 17:53 57.06837 17.56169 24723 ft 312 kts
2026-04-22 17:53 57.08980 17.56788 24310 ft 311 kts
2026-04-22 17:53 57.11111 17.57413 23898 ft 310 kts
2026-04-22 17:54 57.13241 17.58032 23466 ft 309 kts
2026-04-22 17:54 57.15356 17.58649 23042 ft 307 kts
2026-04-22 17:54 57.17455 17.59266 22634 ft 304 kts
2026-04-22 17:54 57.19540 17.59873 22233 ft 302 kts
2026-04-22 17:55 57.21612 17.60483 21835 ft 300 kts
2026-04-22 17:55 57.23674 17.61084 21435 ft 299 kts
2026-04-22 17:55 57.25723 17.61689 21040 ft 298 kts
2026-04-22 17:55 57.27765 17.62290 20647 ft 296 kts
2026-04-22 17:56 57.29795 17.62885 20257 ft 295 kts
2026-04-22 17:56 57.31822 17.63483 19865 ft 294 kts
2026-04-22 17:56 57.33816 17.64298 19474 ft 294 kts 18°
2026-04-22 17:56 57.35661 17.65893 19098 ft 291 kts 24°
2026-04-22 17:57 57.37432 17.67669 18730 ft 288 kts 26°
2026-04-22 17:57 57.39160 17.69500 18354 ft 284 kts 26°
2026-04-22 17:57 57.40853 17.71333 17947 ft 280 kts 27°
2026-04-22 17:57 57.42519 17.73150 17536 ft 276 kts 27°
2026-04-22 17:58 57.44160 17.74960 17129 ft 273 kts 27°
2026-04-22 17:58 57.45785 17.76759 16732 ft 271 kts 27°
2026-04-22 17:58 57.47400 17.78557 16341 ft 269 kts 27°
2026-04-22 17:58 57.49001 17.80354 15954 ft 268 kts 27°
2026-04-22 17:59 57.50598 17.82143 15572 ft 268 kts 27°
2026-04-22 17:59 57.52186 17.83937 15202 ft 267 kts 27°
2026-04-22 17:59 57.53772 17.85727 14840 ft 267 kts 27°
2026-04-22 17:59 57.55358 17.87521 14486 ft 266 kts 27°
2026-04-22 18:00 57.56404 17.88709 14248 ft 266 kts 27°
2026-04-22 18:00 57.58518 17.91108 13780 ft 266 kts 27°
2026-04-22 18:00 57.60097 17.92905 13393 ft 266 kts 27°
2026-04-22 18:00 57.61653 17.94670 13018 ft 265 kts 27°
2026-04-22 18:01 57.63248 17.96481 12650 ft 265 kts 27°
2026-04-22 18:01 57.64799 17.98243 12290 ft 264 kts 27°
2026-04-22 18:01 57.66367 18.00023 11933 ft 264 kts 27°
2026-04-22 18:01 57.67932 18.01807 11583 ft 263 kts 27°
2026-04-22 18:02 57.69492 18.03581 11239 ft 263 kts 27°
2026-04-22 18:02 57.71050 18.05359 10888 ft 262 kts 27°
2026-04-22 18:02 57.72597 18.07129 10572 ft 260 kts 27°
2026-04-22 18:02 57.74129 18.08891 10241 ft 258 kts 27°
2026-04-22 18:03 57.75403 18.11286 9665 ft 265 kts 50°
2026-04-22 18:03 57.76361 18.14180 8698 ft 254 kts 51°
2026-04-22 18:03 57.77331 18.16830 7769 ft 239 kts 45°
2026-04-22 18:03 57.78434 18.19037 6856 ft 226 kts 37°
2026-04-22 18:04 57.79551 18.20947 5906 ft 209 kts 36°
2026-04-22 18:04 57.80597 18.22764 5001 ft 201 kts 37°
2026-04-22 18:04 57.81579 18.24540 4209 ft 192 kts 37°
2026-04-22 18:04 57.82531 18.26259 3415 ft 188 kts 36°
2026-04-22 18:05 57.83467 18.27956 2640 ft 186 kts 36°
2026-04-22 18:05 57.84370 18.29599 2461 ft 177 kts 36°
2026-04-22 18:05 57.85054 18.31560 2249 ft 189 kts 66°
2026-04-22 18:05 57.85136 18.34040 2206 ft 198 kts 96°
2026-04-22 18:06 57.84657 18.36474 2194 ft 197 kts 105°
2026-04-22 18:06 57.84180 18.38865 2193 ft 195 kts 106°
2026-04-22 18:06 57.83687 18.41251 2193 ft 197 kts 105°
2026-04-22 18:06 57.83039 18.43535 2187 ft 205 kts 133°
2026-04-22 18:07 57.82265 18.44545 2197 ft 206 kts 154°
2026-04-22 18:07 57.80419 18.44779 2204 ft 200 kts 203°
2026-04-22 18:07 57.79126 18.43907 2207 ft 199 kts 207°
2026-04-22 18:07 57.77823 18.42933 2146 ft 199 kts 209°
2026-04-22 18:08 57.76530 18.41986 2013 ft 201 kts 208°
2026-04-22 18:08 57.75242 18.41055 1862 ft 196 kts 207°
2026-04-22 18:08 57.74019 18.40187 1674 ft 180 kts 207°
2026-04-22 18:08 57.72925 18.39412 1437 ft 152 kts 209°
2026-04-22 18:09 57.72046 18.38771 1229 ft 124 kts 211°
2026-04-22 18:09 57.71259 18.38192 1059 ft 119 kts 208°
2026-04-22 18:09 57.70494 18.37679 891 ft 116 kts 206°
2026-04-22 18:09 57.69761 18.37136 710 ft 111 kts 208°
2026-04-22 18:10 57.69055 18.36640 561 ft 105 kts 205°
2026-04-22 18:10 57.68379 18.36128 438 ft 106 kts 207°
2026-04-22 18:10 57.67686 18.35631 311 ft 107 kts 207°
2026-04-22 18:10 57.66985 18.35130 156 ft 105 kts 205°
2026-04-22 18:11 57.66409 18.34710 140 ft 58 kts 202°
2026-04-22 18:11 57.66142 18.34515 144 ft 37 kts 200°
2026-04-22 18:11 57.65986 18.34402 142 ft 13 kts 213°
2026-04-22 18:11 57.65975 18.34275 142 ft 12 kts 288°
2026-04-22 18:12 57.66006 18.34118 139 ft 8 kts 287°
2026-04-22 18:12 57.65970 18.33997 139 ft 15 kts 211°
2026-04-22 18:12 57.65913 18.33919 140 ft 9 kts 247°
2026-04-22 18:12 57.65969 18.33877 140 ft 3 kts 330°